Location: Newark
(47.5833°N, 8.1500°E)
Time: 01:09:32
(UTC+00:00)

Transit 2A - Pass Details

Date: 02 November 2020
Orbit: 594 x 964 km, 66.7° (Epoch: 25 November)

Event Time Altitude Azimuth Distance (km) Brightness Sun altitude
Rises 09:11:45 0° 316° (NW) 3,398 8.8 22.0°
Reaches altitude 10° 09:14:49 10° 302° (WNW) 2,389 8.1 22.3°
Maximum altitude 09:18:51 22° 254° (WSW) 1,629 7.7 22.6°
Drops below altitude 10° 09:22:37 10° 205° (SSW) 2,189 9.0 22.9°
Sets 09:25:18 0° 189° (S) 3,039 9.9 23.2°
